Location: Newark
(28.2239°N, 112.9771°E)
Time: 23:36:35
(UTC+00:00)

Envisat - Visible Passes

Search period start: 20 October 2019 00:00
Search period end: 30 October 2019 00:00
Orbit: 764 x 766 km, 98.1° (Epoch: 20 October)

Date Brightness Start Highest point End Pass type
(mag) Time Alt. Az. Time Alt. Az. Time Alt. Az.
20 Oct 3.0 10:45:32 10° SSE 10:50:37 86° WSW 10:55:43 10° NNW visible
21 Oct 3.5 10:09:20 10° SE 10:13:59 37° ENE 10:18:38 10° N visible
21 Oct 5.8 11:49:43 10° SW 11:53:01 17° W 11:56:21 10° NW visible
22 Oct 4.2 11:11:19 10° S 11:16:07 44° W 11:20:57 10° NNW visible
23 Oct 2.9 10:34:20 10° SSE 10:39:21 73° ENE 10:44:26 10° N visible
24 Oct 5.4 11:37:45 10° SSW 11:41:41 23° W 11:45:41 10° NW visible
25 Oct 3.6 10:59:52 10° S 11:04:50 58° W 11:09:51 10° NNW visible
26 Oct 3.1 10:23:12 10° SSE 10:28:08 55° ENE 10:33:05 10° N visible
26 Oct 6.2 12:05:42 10° WSW 12:07:22 11° W 12:09:01 10° WNW visible
27 Oct 4.9 11:25:59 10° SSW 11:30:23 30° W 11:34:49 10° NW visible
27 Oct 6.4 22:04:40 10° ENE 22:06:58 13° E 22:09:15 10° ESE visible
28 Oct 3.1 10:48:31 10° S 10:53:35 78° WSW 10:58:39 10° NNW visible
29 Oct 3.4 10:12:11 10° SE 10:16:55 41° ENE 10:21:40 10° N visible
29 Oct 5.9 11:53:02 10° SW 11:56:01 16° W 11:59:01 10° WNW visible
